[[{"header":{"parameterUnit":"m.s-1","parameterCategory":1,"la1":30.2991,"la2":30.254,"lo1":-89.0895,"lo2":-89.0444,"dy":0.0017,"dx":0.0017,"nx":28,"ny":28,"refTime":"2023-04-30T15:00:00:Z","depth":0,"parameterNumber":2,"parameterNumberName":"U-component_of_WINDS"},"data":[0,0,0,0,0,0,0,0,0,0,0,0,0,0,0,0,0,0,0,0,0,0,0,0,0,0,0,0,0,0,0,0,0,0,0,0,0,0,0,0,0,0,0,0,0,0,0,0,0,0,0,0,0,0,0,0,0,0,5.3246,5.3247,0,5.3333,5.3334,5.3334,5.329,5.3288,5.3286,5.3284,5.3372,5.3376,5.3381,0,0,0,0,0,0,0,0,0,0,0,0,0,5.3046,5.305,5.3246,5.3247,5.3249,5.3332,5.3334,5.3335,5.3291,5.3288,5.3285,5.3283,5.3371,5.3376,5.3381,0,0,0,0,0,0,0,0,0,0,0,0,0,5.3132,5.3051,5.3246,5.3237,5.3237,5.3332,5.3334,5.3335,5.3291,5.3288,5.3284,5.3281,5.3369,5.3375,5.3382,5.3492,0,0,5.3402,5.3405,0,0,0,0,0,0,0,0,5.3128,5.314,5.3237,5.3237,5.3238,5.3297,5.3295,5.3388,5.3292,5.3271,5.3283,5.328,5.335,5.3358,5.3382,5.3496,5.35,5.3403,5.3407,5.341,5.3412,0,0,0,0,0,0,0,5.3122,5.3136,5.328,5.3238,5.3239,5.3229,5.3237,5.3313,5.3328,5.3272,5.3269,5.328,5.3349,5.3375,5.3383,5.3501,5.3403,5.3409,5.3413,5.3416,5.3713,5.3717,0,0,0,0,0,0,5.3116,5.3131,5.3278,5.3283,5.3173,5.3235,5.3245,5.3282,5.3327,5.3331,5.3283,5.3278,5.3365,5.3376,5.3386,5.352,5.341,5.3416,5.342,5.3709,5.3714,5.3718,0,0,0,0,0,0,5.3112,5.3129,5.3274,5.3206,5.3224,5.3242,5.3284,5.3285,5.3311,5.3335,5.3338,5.3306,5.3363,5.3377,5.3467,5.3522,5.3419,5.3425,5.3705,5.3711,5.3716,5.3787,0,0,0,0,0,0,5.3106,5.3128,5.317,5.3208,5.3228,5.3353,5.3287,5.3289,5.3322,5.3316,5.3358,5.3362,5.3362,5.3457,5.3473,5.353,5.3431,5.37,5.3707,5.3714,5.378,5.3795,5.3807,0,0,0,0,0,5.3099,5.3186,5.3172,5.319,5.328,5.3356,5.3368,5.3365,5.3327,5.3369,5.3386,5.336,5.3514,5.3466,5.3485,5.3544,5.3696,5.3705,5.3714,5.3774,5.3792,5.3807,0,0,0,0,0,0,5.3153,5.319,5.3175,5.3277,5.3314,5.3348,5.3401,5.3384,5.3433,5.3425,5.3421,5.343,5.3524,5.3543,5.349,5.3654,5.3599,5.3612,5.3639,5.3656,5.3669,5.3663,5.3436,0,0,0,0,0,5.3177,5.3235,5.3264,5.3351,5.337,5.3383,5.3416,5.3411,5.3449,5.3465,5.3487,5.3526,5.3583,5.362,5.3674,5.3782,5.3792,5.3832,5.3846,5.3857,5.3869,5.393,5.3949,5.3747,5.3747,5.3746,0,0,5.3226,5.3254,5.3291,5.3363,5.3391,5.3452,5.3396,5.3463,5.3509,5.3475,5.3562,5.358,5.3622,5.3723,5.3768,5.3741,5.3927,5.3868,5.3877,5.3882,5.3941,5.396,5.3977,5.3753,5.3752,5.3751,0,0,5.3348,5.3374,5.345,5.348,5.3523,5.3531,5.355,5.3588,5.3599,5.3686,5.3663,5.3717,5.3815,5.3847,5.3876,5.4013,5.3992,5.403,5.4102,5.4162,5.4178,5.4192,5.4243,5.4261,5.4041,5.4042,5.4042,0,5.3404,5.3495,5.3491,5.3561,5.3594,5.3567,5.3645,5.3674,5.3733,5.3757,5.3726,5.3849,5.3876,5.3985,5.4018,5.4042,5.4064,5.4026,5.4176,5.419,5.4203,5.4252,5.4271,5.4046,5.4046,5.4045,5.4045,0,5.3563,5.3627,5.3683,5.3742,5.3781,5.3855,5.3863,5.3903,5.3896,5.3908,5.3998,5.4029,5.409,5.4115,5.4108,5.4224,5.4206,5.4176,5.4121,5.4227,5.4273,5.4291,5.4053,5.4051,5.405,5.4048,0,0,5.372,5.3777,5.3798,5.3826,5.3873,5.3922,5.3995,5.4055,5.4091,5.4133,5.4195,5.4279,5.4252,5.4286,5.4282,5.4334,5.4444,5.4298,5.4299,5.4325,5.4576,5.46,5.4621,5.443,5.4434,5.4436,5.4573,0,5.3847,5.3975,5.3974,5.4093,5.4153,5.4129,5.4193,5.4229,5.4243,5.4296,5.4311,5.4372,5.433,5.4351,5.4402,5.442,5.4494,5.441,5.4489,5.4492,5.4481,5.4644,5.4669,5.4797,5.4591,5.4594,5.4596,0,5.4011,5.406,5.4185,5.4225,5.425,5.4308,5.4364,5.4415,5.4456,5.4463,5.4501,5.449,5.4566,5.4508,5.4614,5.4556,5.4589,5.4603,5.4608,5.4616,5.4551,5.4659,5.4837,5.4857,5.4623,5.4621,5.4619,0,5.4116,5.4213,5.43,5.4324,5.4373,5.4414,5.4437,5.4475,5.4512,5.4561,5.4585,5.4642,5.4674,5.4719,5.4724,5.4681,5.4831,5.4773,5.484,5.484,5.4873,5.4871,5.506,5.4892,5.4892,5.4891,5.4891,0,5.4259,5.4336,5.4349,5.4403,5.449,5.4489,5.4575,5.4594,5.4629,5.4687,5.4669,5.4724,5.4727,5.4785,5.4789,5.4877,5.4891,5.4899,5.49,5.4902,5.4901,5.4924,5.4916,5.4896,5.4895,5.4894,5.4893,0,5.4391,5.4402,5.4496,5.4535,5.4547,5.461,5.4643,5.4696,5.4708,5.4782,5.48,5.4819,5.4886,5.4895,5.4973,5.4976,5.5082,5.5073,5.5069,5.5068,5.5135,5.5129,5.5347,5.5376,5.5187,5.5188,5.519,0,5.4481,5.4541,5.4587,5.4625,5.465,5.471,5.4748,5.475,5.4791,5.4844,5.489,5.4955,5.5007,5.5115,5.5136,5.5196,5.5189,5.5261,5.5198,5.5199,5.5192,5.5189,5.5196,5.5274,5.5276,5.5277,5.5279,0,5.4642,5.4645,5.47,5.4758,5.4804,5.4849,5.4892,5.4925,5.4932,5.4979,5.5047,5.5087,5.5167,5.5233,5.5292,5.5316,5.53,5.5299,5.5318,5.5321,5.5317,5.5322,5.5104,5.5294,5.5292,5.5291,5.529,5.529,5.4758,5.481,5.4851,5.4914,5.4947,5.4988,5.504,5.5059,5.5116,5.5181,5.5179,5.5255,5.5297,5.5375,5.5404,5.5463,5.544,5.5467,5.5474,5.5481,5.5489,5.5306,5.5474,5.5473,5.5473,5.5473,5.5472,0,5.4919,5.4945,5.5002,5.5064,5.5113,5.5093,5.5141,5.5184,5.525,5.5291,5.5343,5.5422,5.5486,5.5513,5.5576,5.5619,5.5613,5.5635,5.5633,5.5639,5.5505,5.5483,5.5639,5.5639,5.5639,5.5639,5.5639,5.5639,5.5009,5.5098,5.5106,5.5212,5.5237,5.531,5.534,5.5378,5.5411,5.55,5.5553,5.557,5.5606,5.5672,5.573,5.5737,5.5762,5.5788,5.5791,5.5665,5.5648,5.5632,5.5612,5.5793,5.5793,5.5921,5.5922,5.5923]},{"header":{"parameterUnit":"m.s-1","parameterCategory":1,"la1":30.2991,"la2":30.254,"lo1":-89.0895,"lo2":-89.0444,"dy":0.0017,"dx":0.0017,"nx":28,"ny":28,"refTime":"2023-04-30T15:00:00:Z","depth":0,"parameterNumber":3,"parameterNumberName":"V-component_of_WINDS"},"data":[0,0,0,0,0,0,0,0,0,0,0,0,0,0,0,0,0,0,0,0,0,0,0,0,0,0,0,0,0,0,0,0,0,0,0,0,0,0,0,0,0,0,0,0,0,0,0,0,0,0,0,0,0,0,0,0,0,0,-3.2704,-3.2705,0,-3.2788,-3.2789,-3.279,-3.2799,-3.2798,-3.2798,-3.2797,-3.2881,-3.2884,-3.2887,0,0,0,0,0,0,0,0,0,0,0,0,0,-3.2552,-3.2555,-3.2704,-3.2705,-3.2706,-3.2788,-3.2789,-3.279,-3.2799,-3.2798,-3.2797,-3.2796,-3.288,-3.2884,-3.2887,0,0,0,0,0,0,0,0,0,0,0,0,0,-3.2625,-3.2556,-3.2704,-3.2721,-3.2723,-3.2787,-3.2789,-3.279,-3.28,-3.2798,-3.2797,-3.2796,-3.2879,-3.2883,-3.2888,-3.2941,0,0,-3.2902,-3.2904,0,0,0,0,0,0,0,0,-3.2621,-3.2631,-3.2717,-3.272,-3.2722,-3.2782,-3.2766,-3.2841,-3.28,-3.277,-3.2797,-3.2795,-3.2849,-3.2856,-3.2874,-3.2945,-3.2948,-3.2902,-3.2905,-3.2907,-3.2908,0,0,0,0,0,0,0,-3.2616,-3.2627,-3.2737,-3.2718,-3.2722,-3.2724,-3.2733,-3.278,-3.2816,-3.2773,-3.2774,-3.2784,-3.285,-3.287,-3.2876,-3.2949,-3.2902,-3.2906,-3.2909,-3.2911,-3.3069,-3.3071,0,0,0,0,0,0,-3.2608,-3.2623,-3.2734,-3.2739,-3.2668,-3.2728,-3.2738,-3.2764,-3.2815,-3.2822,-3.2785,-3.2784,-3.2863,-3.2871,-3.2879,-3.2946,-3.2907,-3.2911,-3.2914,-3.3068,-3.307,-3.3071,0,0,0,0,0,0,-3.2604,-3.2618,-3.2731,-3.2682,-3.2696,-3.2732,-3.2761,-3.2766,-3.2786,-3.2824,-3.283,-3.2798,-3.2862,-3.2873,-3.2926,-3.2949,-3.2913,-3.2917,-3.3066,-3.3068,-3.3071,-3.3079,0,0,0,0,0,0,-3.26,-3.2616,-3.2637,-3.2682,-3.2699,-3.2776,-3.2762,-3.2769,-3.2794,-3.2794,-3.2839,-3.2845,-3.2862,-3.2919,-3.293,-3.2955,-3.2921,-3.3064,-3.3067,-3.307,-3.3076,-3.3081,-3.3085,0,0,0,0,0,-3.2595,-3.2635,-3.2638,-3.2651,-3.2725,-3.2777,-3.2787,-3.2806,-3.2796,-3.2817,-3.2841,-3.2843,-3.2945,-3.2924,-3.2937,-3.2963,-3.3063,-3.3066,-3.307,-3.3075,-3.308,-3.3085,0,0,0,0,0,0,-3.259,-3.2641,-3.2645,-3.2701,-3.2735,-3.2779,-3.2806,-3.2811,-3.2848,-3.2846,-3.2869,-3.2879,-3.2931,-3.2952,-3.2929,-3.3018,-3.3003,-3.3009,-3.3002,-3.3008,-3.3012,-3.3005,-3.2924,0,0,0,0,0,-3.2596,-3.2635,-3.2677,-3.2722,-3.2739,-3.2769,-3.2793,-3.2805,-3.2841,-3.2855,-3.2884,-3.2919,-3.2959,-3.2984,-3.3023,-3.308,-3.309,-3.3104,-3.3108,-3.3111,-3.3116,-3.315,-3.3157,-3.3082,-3.3082,-3.3082,0,0,-3.2608,-3.264,-3.2663,-3.2722,-3.275,-3.279,-3.2781,-3.2823,-3.2853,-3.2862,-3.2914,-3.2936,-3.2976,-3.3032,-3.3058,-3.3051,-3.3139,-3.3115,-3.3118,-3.3121,-3.3154,-3.3161,-3.3167,-3.3085,-3.3084,-3.3084,0,0,-3.265,-3.2678,-3.272,-3.2748,-3.2791,-3.2811,-3.2821,-3.2865,-3.2881,-3.2934,-3.2942,-3.2977,-3.3045,-3.3074,-3.3098,-3.3153,-3.3157,-3.3165,-3.3186,-3.3219,-3.3225,-3.323,-3.3251,-3.3258,-3.317,-3.317,-3.317,0,-3.2659,-3.2719,-3.274,-3.2783,-3.2809,-3.282,-3.2863,-3.2889,-3.2942,-3.296,-3.2952,-3.3039,-3.3066,-3.313,-3.3144,-3.3162,-3.3175,-3.316,-3.3222,-3.3228,-3.3233,-3.3253,-3.3261,-3.3171,-3.3171,-3.3171,-3.317,0,-3.2729,-3.2771,-3.28,-3.2852,-3.2881,-3.2924,-3.2951,-3.2979,-3.2989,-3.301,-3.3065,-3.3099,-3.3145,-3.3161,-3.3171,-3.3227,-3.3222,-3.3218,-3.3203,-3.3241,-3.326,-3.3268,-3.3172,-3.3172,-3.3171,-3.3171,0,0,-3.277,-3.2835,-3.2845,-3.2869,-3.2918,-3.2951,-3.2995,-3.3041,-3.3065,-3.3101,-3.3139,-3.3197,-3.3194,-3.3221,-3.3234,-3.3263,-3.3306,-3.3256,-3.3257,-3.3265,-3.3372,-3.3375,-3.3384,-3.3309,-3.3311,-3.3312,-3.3369,0,-3.2818,-3.2896,-3.2917,-3.2984,-3.3023,-3.3035,-3.3073,-3.3108,-3.3129,-3.3166,-3.319,-3.3231,-3.3224,-3.324,-3.3269,-3.3295,-3.3328,-3.3291,-3.3345,-3.3347,-3.3335,-3.3394,-3.3397,-3.3449,-3.3376,-3.3378,-3.3379,0,-3.2885,-3.2924,-3.2995,-3.3041,-3.3058,-3.3092,-3.3137,-3.3172,-3.3212,-3.3226,-3.3257,-3.3268,-3.3315,-3.3297,-3.3362,-3.3337,-3.336,-3.3376,-3.3379,-3.3385,-3.3365,-3.3402,-3.3465,-3.3474,-3.3391,-3.339,-3.3389,0,-3.2909,-3.298,-3.3032,-3.3052,-3.3106,-3.313,-3.3154,-3.3192,-3.322,-3.3259,-3.3277,-3.3321,-3.3346,-3.338,-3.3403,-3.3388,-3.3467,-3.3451,-3.348,-3.3479,-3.3496,-3.3495,-3.3565,-3.351,-3.351,-3.3509,-3.3509,0,-3.2961,-3.3004,-3.3043,-3.3075,-3.3124,-3.3148,-3.3196,-3.322,-3.3255,-3.3292,-3.3304,-3.3339,-3.3367,-3.3406,-3.3424,-3.3476,-3.3487,-3.35,-3.3504,-3.3499,-3.3498,-3.3515,-3.3512,-3.3512,-3.3511,-3.3511,-3.351,0,-3.2997,-3.3024,-3.3082,-3.3129,-3.3142,-3.3176,-3.3217,-3.3249,-3.3271,-3.3318,-3.3331,-3.3366,-3.3413,-3.3439,-3.3497,-3.351,-3.3568,-3.357,-3.3555,-3.3557,-3.3585,-3.3582,-3.3669,-3.3682,-3.3617,-3.3618,-3.3618,0,-3.3028,-3.3062,-3.3114,-3.314,-3.3164,-3.3206,-3.3234,-3.326,-3.3289,-3.3338,-3.3364,-3.3411,-3.3451,-3.3524,-3.3555,-3.36,-3.3605,-3.3632,-3.3611,-3.3606,-3.3606,-3.3605,-3.3609,-3.3635,-3.3636,-3.3636,-3.3637,0,-3.3083,-3.3095,-3.3136,-3.3182,-3.3216,-3.3253,-3.329,-3.3311,-3.3342,-3.3374,-3.3423,-3.3453,-3.3514,-3.3561,-3.3609,-3.3634,-3.3641,-3.3643,-3.3653,-3.3648,-3.3638,-3.3645,-3.3565,-3.3641,-3.3641,-3.364,-3.364,-3.364,-3.3118,-3.3149,-3.3191,-3.3236,-3.3267,-3.3302,-3.3335,-3.3362,-3.3403,-3.3454,-3.3467,-3.3518,-3.3559,-3.3624,-3.365,-3.3691,-3.3686,-3.3699,-3.3702,-3.3706,-3.3707,-3.3631,-3.3699,-3.3699,-3.3699,-3.3699,-3.3699,0,-3.3174,-3.3202,-3.3243,-3.3295,-3.3332,-3.3336,-3.3378,-3.3408,-3.3453,-3.349,-3.3529,-3.3585,-3.3632,-3.3667,-3.3715,-3.3741,-3.3746,-3.3753,-3.3751,-3.3757,-3.3708,-3.3696,-3.3748,-3.3748,-3.3748,-3.3748,-3.3748,-3.3748,-3.3207,-3.3261,-3.3279,-3.3348,-3.3376,-3.3426,-3.345,-3.3483,-3.3513,-3.3575,-3.3615,-3.3637,-3.3675,-3.3726,-3.3769,-3.3778,-3.3796,-3.3802,-3.3812,-3.3766,-3.376,-3.3755,-3.3744,-3.3806,-3.3806,-3.3858,-3.3859,-3.3859]}]]